Location: Newark
(63.1158°N, 8.1461°E)
Time: 20:29:48
(UTC+00:00)

Envisat - Pass Details

Date: 14 December 2019
Orbit: 764 x 766 km, 98.1° (Epoch: 25 January)

Event Time Altitude Azimuth Distance (km) Brightness Sun altitude
Rises 15:13:41 0° 120° (ESE) 3,235 6.0 -7.5°
Reaches altitude 10° 15:16:11 10° 110° (ESE) 2,312 5.2 -7.7°
Maximum altitude 15:20:37 31° 50° (NE) 1,319 3.7 -8.1°
Drops below altitude 10° 15:25:05 10° 349° (N) 2,321 5.3 -8.6°
Sets 15:27:36 0° 340° (NNW) 3,251 6.1 -8.8°
